sat.trackr.live / text

‹ back to catalog

OUTPOST MISSION 2

NORAD 58334 · 2023-174CG

PAYLOAD ACTIVE UNKNOWN

§ Identity

Operator
Country
US
Launch date
2023-11-11
Launch site
AFWTR
Launch vehicle
Mass (kg)
RCS (m²)

External: N2YO · Heavens-Above · Gunter

§ Orbital elements

Epoch: 2026-05-25T05:18:20.995776Z

Period
92.56 min
Inclination
97.3958°
Eccentricity
0.0005797
Mean motion
15.55824163 rev/d
Perigee alt
395.8 km
Apogee alt
403.7 km
Semi-major
6,777.9 km
B*
5.0676e-4
RAAN
237.3359°
Arg perigee
188.7842°
Mean anomaly
171.3312°
Rev number
14,225

§ Raw data

OUTPOST MISSION 21 58334U 23174CG  26145.22107634  .00035035  00000+0  50676-3 0  99952 58334  97.3958 237.3359 0005797 188.7842 171.3312 15.55824163142256

JSON: /api/v1/satellites/58334 · /tle

For live sub-satellite position, see the globe view (requires WebGL).

§ Visibility from observer

Set your observer location to see the next 7 days of passes ≥ 10°. The values pass through the URL so the page stays shareable.

No JS? Fill the form by hand. The geolocation button needs JavaScript.

§ Radio — SatNOGS DB

ModeDescriptionDownlinkUplink
FM Mode U - Transmitter 401.250 MHz
FM Mode U - Transmitter 401.500 MHz

2 transmitters · refreshed weekly from db.satnogs.org